Sturgeon Bay, WI

9:13 AM CDT on April 23, 2017 (GMT -0500)
Door County Cherryland

Weather History for KSUE - October, 2011

Change the Weather History Date:

Thursday, October 27, 2011

  Actual Average Record
Temperature  
Mean Temperature 38 °F -  
Max Temperature 44 °F 54 °F 78 °F (1927)
Min Temperature 33 °F 38 °F 21 °F (1936)
Degree Days  
Heating Degree Days 26    
Moisture  
Dew Point 33 °F    
Average Humidity 74    
Maximum Humidity 93    
Minimum Humidity 53    
Precipitation  
Precipitation 0.00 in - - ()
Sea Level Pressure  
Sea Level Pressure 30.05 in    
Wind  
Wind Speed 7 mph (NNW)    
Max Wind Speed 13 mph    
Max Gust Speed 17 mph    
Visibility 10 miles    
Events      
Averages and records for this station are not official NWS values.
T = Trace of Precipitation, MM = Missing Value Source: NWS Daily Summary

Daily Weather History Graph

Daily Weather History Graph

Search for Another Location

Airport or City:

Trip Planner

Search our weather history database for the weather conditions in past years. The results will help you decide how hot, cold, wet, or windy it might be!

Date:

Astronomy

Oct. 27, 2011 Rise Set
Actual Time 7:20 AM CDT 5:45 PM CDT
Civil Twilight 6:50 AM CDT 6:15 PM CDT
Nautical Twilight 6:16 AM CDT 6:50 PM CDT
Astronomical Twilight 5:42 AM CDT 7:24 PM CDT
Moon 8:28 AM CDT (10/27) 6:08 PM CDT (10/27)
Length of Visible Light 11h 25m
Length of Day
10h 25m
New Moon, 1% of the Moon is Illuminated
Oct 27
New Moon
Nov 2
First Quarter
Nov 10
Full
Nov 18
Last Quarter
Nov 25
New

Hourly Weather History & Observations

Time (CDT) Temp. Windchill Dew Point Humidity Pressure Visibility Wind Dir Wind Speed Gust Speed Precip Events Conditions
12:15 AM 42.8 °F 40.1 °F 35.6 °F 76% 30.02 in 10.0 mi NNW 4.6 mph - N/A   Mostly Cloudy
12:35 AM 42.8 °F 39.3 °F 35.6 °F 76% 30.02 in 10.0 mi NNW 5.8 mph - N/A   Partly Cloudy
1:15 AM 42.8 °F 39.3 °F 37.4 °F 81% 30.02 in 10.0 mi NNW 5.8 mph - N/A   Partly Cloudy
1:35 AM 42.8 °F 38.0 °F 35.6 °F 76% 30.01 in 10.0 mi North 8.1 mph - N/A   Scattered Clouds
1:55 AM 42.8 °F 38.0 °F 35.6 °F 76% 30.00 in 10.0 mi North 8.1 mph - N/A   Partly Cloudy
2:15 AM 42.8 °F 39.3 °F 37.4 °F 81% 30.01 in 10.0 mi NNW 5.8 mph - N/A   Scattered Clouds
3:15 AM 41.0 °F 36.4 °F 37.4 °F 87% 30.00 in 10.0 mi NNW 6.9 mph - N/A   Partly Cloudy
3:35 AM 41.0 °F 35.8 °F 35.6 °F 81% 30.00 in 10.0 mi NNW 8.1 mph - N/A   Scattered Clouds
3:55 AM 41.0 °F 34.7 °F 35.6 °F 81% 30.00 in 10.0 mi NNW 10.4 mph - N/A   Mostly Cloudy
4:15 AM 39.2 °F 33.6 °F 35.6 °F 87% 30.00 in 10.0 mi NNW 8.1 mph - N/A   Partly Cloudy
4:35 AM 39.2 °F 33.0 °F 35.6 °F 87% 30.00 in 10.0 mi NNW 9.2 mph - N/A   Clear
4:55 AM 39.2 °F 33.6 °F 35.6 °F 87% 30.00 in 10.0 mi NNW 8.1 mph - N/A   Clear
5:55 AM 39.2 °F 33.0 °F 33.8 °F 81% 30.00 in 10.0 mi NNW 9.2 mph - N/A   Clear
6:15 AM 39.2 °F 32.5 °F 33.8 °F 81% 30.00 in 10.0 mi NNW 10.4 mph - N/A   Partly Cloudy
6:55 AM 39.2 °F 33.0 °F 33.8 °F 81% 30.00 in 10.0 mi NNW 9.2 mph - N/A   Partly Cloudy
7:15 AM 37.4 °F 30.8 °F 33.8 °F 87% 30.01 in 10.0 mi NNW 9.2 mph - N/A   Partly Cloudy
7:36 AM 37.4 °F 31.4 °F 35.6 °F 93% 30.01 in 10.0 mi North 8.1 mph - N/A   Scattered Clouds
7:55 AM 37.4 °F 32.1 °F 35.6 °F 93% 30.02 in 10.0 mi NNW 6.9 mph - N/A   Mostly Cloudy
8:35 AM 39.2 °F 32.5 °F 35.6 °F 87% 30.03 in 10.0 mi NNW 10.4 mph - N/A   Overcast
8:55 AM 39.2 °F 34.2 °F 35.6 °F 87% 30.03 in 10.0 mi NNW 6.9 mph - N/A   Overcast
9:35 AM 41.0 °F 35.2 °F 35.6 °F 81% 30.04 in 10.0 mi NNW 9.2 mph - N/A   Overcast
9:55 AM 41.0 °F 34.3 °F 35.6 °F 81% 30.04 in 10.0 mi NNW 11.5 mph - N/A   Overcast
10:35 AM 42.8 °F 37.0 °F 35.6 °F 76% 30.05 in 10.0 mi North 10.4 mph - N/A   Mostly Cloudy
10:55 AM 42.8 °F 36.2 °F 35.6 °F 76% 30.04 in 10.0 mi North 12.7 mph - N/A   Overcast
11:15 AM 42.8 °F 36.6 °F 33.8 °F 70% 30.05 in 10.0 mi North 11.5 mph - N/A   Mostly Cloudy
11:35 AM 42.8 °F 36.2 °F 33.8 °F 70% 30.05 in 10.0 mi North 12.7 mph 17.3 mph N/A   Mostly Cloudy
11:55 AM 42.8 °F 36.6 °F 33.8 °F 70% 30.05 in 10.0 mi North 11.5 mph - N/A   Mostly Cloudy
12:15 PM 42.8 °F 36.6 °F 33.8 °F 70% 30.05 in 10.0 mi NNW 11.5 mph - N/A   Mostly Cloudy
12:35 PM 44.6 °F 39.7 °F 32.0 °F 61% 30.05 in 10.0 mi North 9.2 mph - N/A   Scattered Clouds
12:55 PM 42.8 °F 37.5 °F 30.2 °F 61% 30.04 in 10.0 mi North 9.2 mph - N/A   Partly Cloudy
1:15 PM 44.6 °F 39.7 °F 33.8 °F 66% 30.04 in 10.0 mi NW 9.2 mph - N/A   Partly Cloudy
1:35 PM 44.6 °F 41.4 °F 30.2 °F 57% 30.04 in 10.0 mi North 5.8 mph - N/A   Mostly Cloudy
2:15 PM 44.6 °F 40.2 °F 30.2 °F 57% 30.02 in 10.0 mi North 8.1 mph - N/A   Partly Cloudy
2:35 PM 44.6 °F 40.7 °F 30.2 °F 57% 30.03 in 10.0 mi NW 6.9 mph - N/A   Scattered Clouds
2:55 PM 44.6 °F 40.7 °F 30.2 °F 57% 30.05 in 10.0 mi NW 6.9 mph - N/A   Scattered Clouds
3:35 PM 44.6 °F 42.2 °F 30.2 °F 57% 30.05 in 10.0 mi West 4.6 mph - N/A   Scattered Clouds
3:55 PM 44.6 °F 41.4 °F 30.2 °F 57% 30.07 in 10.0 mi NW 5.8 mph - N/A   Partly Cloudy
4:15 PM 44.6 °F 43.1 °F 30.2 °F 57% 30.07 in 10.0 mi NNW 3.5 mph - N/A   Partly Cloudy
4:35 PM 44.6 °F - 30.2 °F 57% 30.08 in 10.0 mi Calm Calm - N/A   Clear
4:55 PM 44.6 °F 42.2 °F 30.2 °F 57% 30.08 in 10.0 mi NNE 4.6 mph - N/A   Clear
5:35 PM 44.6 °F - 28.4 °F 53% 30.09 in 10.0 mi Calm Calm - N/A   Clear
5:55 PM 41.0 °F - 30.2 °F 65% 30.09 in 10.0 mi Calm Calm - N/A   Clear
6:15 PM 39.2 °F - 30.2 °F 70% 30.09 in 10.0 mi Calm Calm - N/A   Clear
6:35 PM 37.4 °F - 28.4 °F 70% 30.08 in 10.0 mi Calm Calm - N/A   Clear
6:55 PM 37.4 °F - 30.2 °F 75% 30.09 in 10.0 mi Calm Calm - N/A   Clear
7:15 PM 37.4 °F - 30.2 °F 75% 30.10 in 10.0 mi Calm Calm - N/A   Clear
7:35 PM 35.6 °F - 30.2 °F 81% 30.08 in 10.0 mi Calm Calm - N/A   Clear
7:55 PM 35.6 °F - 30.2 °F 81% 30.09 in 10.0 mi Calm Calm - N/A   Clear
8:15 PM 35.6 °F - 30.2 °F 81% 30.10 in 10.0 mi Calm Calm - N/A   Clear
8:55 PM 33.8 °F 30.8 °F 30.2 °F 87% 30.11 in 10.0 mi SSE 3.5 mph - N/A   Clear
9:15 PM 35.6 °F 32.8 °F 28.4 °F 75% 30.11 in 10.0 mi SE 3.5 mph - N/A   Clear
9:35 PM - - - N/A% 30.11 in 10.0 mi Calm Calm - N/A   Clear
9:55 PM 35.6 °F - 28.4 °F 75% 30.11 in 10.0 mi Calm Calm - N/A   Clear
10:15 PM 33.8 °F - 30.2 °F 87% 30.11 in 10.0 mi Calm Calm - N/A   Clear
10:35 PM 33.8 °F - 28.4 °F 81% 30.12 in 10.0 mi Calm Calm - N/A   Mostly Cloudy
10:55 PM 35.6 °F 31.7 °F 30.2 °F 81% 30.12 in 10.0 mi SSE 4.6 mph - N/A   Overcast
11:15 PM 37.4 °F 33.8 °F 30.2 °F 75% 30.12 in 10.0 mi SSE 4.6 mph - N/A   Overcast
11:35 PM 39.2 °F 35.9 °F 32.0 °F 75% 30.12 in 10.0 mi SSE 4.6 mph - N/A   Mostly Cloudy